Weather Roundup
Issued by NWS

Home | Current Version | Previous Version | Text Only | Print | Product List | Glossary On
Versions: 1 2 3 4 5 6 7 8 9 10 11 12 13 14 15 16 17 18 19 20 21 22 23 24 25 26 27 28 29 30 31 32 33 34 35 36 37 38 39 40 41 42 43 44 45 46 47 48 49 50
528
NZUS93 KARX 201959
HRRWXR

CURRENT HOURLY OBSERVATIONS ACROSS
MUCH OF THE UPPER MISSISSIPPI VALLEY
NATIONAL WEATHER SERVICE LA CROSSE WI
300 PM CDT WED SEP 20 2017


...SOUTHEAST MINNESOTA...


CITY           SKY/WX    TMP DP  RH WIND       PRES   REMARKS
ROCHESTER      PTSUNNY   74  61  63 NW12      29.84R
ROCHESTER/MAYO CLOUDY    73  58  59 W13G18    29.83R
WINONA         PTSUNNY   79  64  61 NW9       29.78R
AUSTIN         PTSUNNY   75  57  53 NW10      29.83R
ALBERT LEA     SUNNY     79  55  44 NW8       29.83S
DODGE CENTER   PTSUNNY   73  55  53 W12       29.84R
PRESTON        MOSUNNY   77  65  65 N12       29.81R
OWATONNA       SUNNY     73  55  53 NW9       29.84R
FARIBAULT      SUNNY     73  55  53 W6        29.84R
$$

...ELSEWHERE IN MINNESOTA...


CITY           SKY/WX    TMP DP  RH WIND       PRES   REMARKS
MINNEAPOLIS    SUNNY     75  53  46 W14       29.82R
INTNL FALLS    SUNNY     65  48  54 W9        29.74R
DULUTH         MOSUNNY   70  55  59 W13       29.77R
RED WING       SUNNY     79  52  38 NW8       29.81R
REDWOOD FALLS  SUNNY     71  46  40 SW9       29.85S
MANKATO        SUNNY     72  52  49 NW10      29.85R
WORTHINGTON    SUNNY     70  46  42 NW7       29.87S
FAIRMONT       SUNNY     73  49  42 NW9       29.86R
$$

...SOUTHWEST WISCONSIN...


CITY           SKY/WX    TMP DP  RH WIND       PRES   REMARKS
LA CROSSE      CLOUDY    83  70  64 W6        29.76S
PRAIRIE DU CHI CLOUDY    85  67  56 S5        29.77S
BOSCOBEL       CLOUDY    87  70  56 VRB5      29.78R HX  92
LONE ROCK      NOT AVBL
PLATTEVILLE    MOSUNNY   87  71  58 S14       29.80S HX  92
FORT MC COY    CLOUDY    80  70  71 S3        29.78F
MAUSTON-NEW LI CLOUDY    82  71  69 SW6       29.78R
VIROQUA        CLOUDY    80  71  75 S6        29.81S
WIS DELLS      NOT AVBL
$$

...ELSEWHERE IN WISCONSIN...


CITY           SKY/WX    TMP DP  RH WIND       PRES   REMARKS
MILWAUKEE      MOSUNNY   82  69  64 SE15      29.84F
MADISON        MOSUNNY   90  70  51 S16G25    29.78F HX  95
GREEN BAY      SUNNY     81  68  64 S15G24    29.81F
EAU CLAIRE     PTSUNNY   76  64  66 W12       29.78R
BLACK RVR FLS  CLOUDY    83  67  58 SW7       29.76F
MEDFORD        CLOUDY    71  66  85 S12       29.81S
WAUSAU         CLOUDY    73  68  84 S7        29.80R
WIS RAPIDS     CLOUDY    79  70  74 SW6       29.81R
MARSHFIELD     RAIN      73  68  84 SE5       29.79F
RICE LAKE      CLOUDY    73  57  58 W7        29.81S
$$

...NORTHEAST IOWA...


CITY           SKY/WX    TMP DP  RH WIND       PRES   REMARKS
WATERLOO       CLOUDY    83  69  62 S13       29.77S
DUBUQUE        MOSUNNY   88  70  55 S17G24    29.79S HX  93
DECORAH        PTSUNNY   81  70  69 VRB3      29.78S
MASON CITY     SUNNY     79  58  48 NW10      29.84R
CHARLES CITY   PTSUNNY   82  66  57 NW9       29.80R
OELWEIN        CLOUDY    84  72  65 SW13      29.80S
$$

...ELSEWHERE IN IOWA...


CITY           SKY/WX    TMP DP  RH WIND       PRES   REMARKS
DES MOINES     PTSUNNY   86  69  56 S8        29.77S HX  90
IOWA CITY      PTSUNNY   93  70  46 S14G20    29.78S HX  99
FORT DODGE     SUNNY     78  57  48 NW10      29.84R
MARSHALLTOWN   PTSUNNY   84  71  65 S12       29.78S
CEDAR RAPIDS   CLOUDY    88  70  55 SW13      29.79R HX  93
$$

...NORTHERN ILLINOIS...


CITY           SKY/WX    TMP DP  RH WIND       PRES   REMARKS
CHICAGO-OHARE  MOSUNNY   91  67  44 S17       29.86F HX  94
CHICAGO-MIDWAY MOSUNNY   92  68  45 SW16G26   29.88F HX  96
MOLINE         SUNNY     93  69  45 S14       29.78F HX  98
ROCKFORD       MOSUNNY   91  68  46 S18G28    29.83F HX  95
PEORIA         SUNNY     93  70  46 S13G22    29.85F HX  99
$$

NOTE: "FAIR" INDICATES FEW OR NO CLOUDS BELOW 12,000 FEET WITH NO
SIGNIFICANT WEATHER AND/OR OBSTRUCTIONS TO VISIBILITY. WIND
SPEEDS ARE IN MILES-PER-HOUR.




USA.gov is the U.S. government's official web portal to all federal, state and local government web resources and services.